Wind_Speed
8 8 7 7 7 7 7 7 7 6 6 6 6 6 6 5 5 6 7 7 8 8 9 9 9 9 10 10 10 10 11 11 12 12 12 12 12 12 12 12 12 12 12 12
9 9 8 8 8 8 8 8 7 7 6 6 6 7 7 7 6 7 8 8 8 9 9 9 10 10 10 10 10 10 11 12 12 13 12 12 12 12 13 12 12 12 12 12
9 9 9 8 8 8 8 8 8 8 7 7 7 7 8 8 8 8 9 9 9 10 10 10 10 11 11 11 11 11 11 12 13 13 13 12 12 13 13 13 12 12 12 12
9 9 9 8 8 8 9 8 8 9 9 9 9 8 8 8 8 9 10 10 10 11 11 11 11 11 11 12 12 13 13 13 13 13 13 13 13 13 13 12 12 12 11 11
9 9 9 9 8 9 9 9 9 10 10 10 10 9 7 9 9 10 10 10 11 11 12 13 12 13 13 13 13 14 14 14 13 13 13 13 13 13 13 12 12 12 11 11
10 9 9 9 9 9 9 10 10 10 11 11 12 11 9 10 10 11 11 11 11 12 13 13 13 14 14 14 14 14 14 14 14 14 14 13 14 14 13 13 13 13 12 12
11 10 10 10 10 10 11 11 12 12 13 13 14 14 12 12 12 12 12 12 12 12 13 14 14 14 15 15 16 16 16 16 16 16 15 14 14 14 14 14 14 13 13 13
12 12 11 11 11 11 12 12 14 15 15 14 15 15 14 14 14 13 13 13 13 13 14 15 15 15 15 16 16 17 17 17 16 17 17 16 16 15 15 15 15 14 14 14
12 12 12 12 12 13 13 13 14 15 16 16 17 16 15 15 14 15 15 15 15 14 15 15 16 17 17 17 17 18 18 18 18 17 18 17 17 17 16 16 16 15 14 14
12 13 12 12 13 13 13 14 15 16 17 18 17 17 16 15 15 16 16 16 16 16 16 17 18 18 19 19 19 19 18 19 19 19 19 19 18 18 17 17 16 15 15 15
13 14 13 13 13 14 14 15 16 16 17 18 19 18 17 17 17 17 17 17 18 17 17 18 19 19 19 20 20 19 19 20 20 20 19 19 20 19 18 18 17 16 16 16
14 15 15 15 14 16 16 16 17 17 18 19 20 18 18 18 18 18 18 18 18 19 19 19 19 19 19 20 20 20 20 20 20 20 20 20 20 20 19 19 18 17 17 17
16 17 17 17 17 17 17 17 18 19 19 20 20 19 18 19 19 19 19 19 19 19 19 19 19 20 20 20 20 21 21 21 21 21 21 21 21 21 20 20 19 19 19 19
17 18 18 18 18 18 18 18 18 19 20 20 20 20 20 20 20 20 20 20 20 20 20 21 21 21 20 21 21 21 21 22 22 22 22 22 22 21 21 21 21 20 21 20
18 19 19 19 20 20 19 19 20 21 21 21 21 22 21 21 22 22 22 21 20 20 20 21 21 21 21 21 21 22 22 22 23 23 22 22 23 23 22 22 23 22 22 22
19 20 20 20 20 21 20 20 21 22 22 22 22 21 21 22 22 23 23 22 22 22 22 21 21 21 21 21 22 22 23 24 24 24 24 24 24 24 23 23 23 23 23 23
21 20 21 21 21 22 21 20 22 22 22 22 22 21 21 22 22 22 23 23 23 23 24 23 23 22 22 22 23 23 24 25 25 25 25 25 25 25 25 24 24 24 25 24
20 21 21 22 22 22 21 21 22 23 23 23 22 22 22 22 23 24 24 24 24 25 24 25 25 24 24 24 25 25 25 26 26 26 26 26 26 27 27 27 26 27 27 26
21 21 21 22 22 22 21 21 22 23 23 22 22 22 23 23 23 24 24 25 25 25 26 26 26 26 26 26 26 26 26 26 27 27 28 27 27 27 28 28 28 28 28 27
22 22 23 23 23 22 21 21 22 23 22 22 22 23 23 24 24 24 24 25 25 26 27 27 28 28 27 27 28 27 26 27 27 27 27 27 27 28 28 28 28 29 28 28
24 24 25 25 25 24 23 23 23 23 22 22 22 23 23 24 25 25 25 26 26 27 27 28 29 29 30 30 29 29 28 28 27 27 26 27 28 29 29 29 29 30 30 30
25 26 25 26 26 25 24 24 24 24 24 23 23 24 25 25 25 26 27 27 27 28 28 29 29 30 30 31 30 30 29 29 28 28 28 28 29 29 29 30 30 30 30 31
26 27 27 27 27 26 25 25 25 25 25 24 25 25 26 26 27 28 29 29 29 30 30 30 30 30 30 31 31 31 30 30 30 30 30 30 30 30 30 30 31 32 32 32
26 26 27 28 28 28 27 26 26 26 27 27 27 27 28 28 29 30 30 31 31 31 31 31 31 31 30 30 30 31 31 31 31 31 32 31 31 31 31 31 31 32 32 32
26 27 28 29 29 29 29 29 28 28 29 29 29 30 30 31 31 32 32 33 33 33 33 33 32 31 31 30 30 31 31 32 32 33 33 32 32 32 32 32 32 32 32 32
27 27 29 29 29 30 30 30 30 31 31 31 31 32 33 33 34 34 35 35 35 34 34 33 33 32 32 32 32 32 32 33 33 33 33 33 33 33 33 33 33 32 33 33
Wind_Direction
247 251 253 252 251 255 259 262 262 263 270 277 283 290 296 301 300 304 308 305 303 301 300 301 300 300 301 303 301 297 298 297 296 297 298 299 299 301 301 300 300 300 301 302
246 246 247 250 252 255 261 264 265 265 267 272 279 285 290 297 301 302 302 305 303 300 299 300 301 300 299 299 298 294 298 298 298 297 296 297 298 300 298 297 297 298 297 297
246 244 246 249 254 261 263 267 267 267 269 273 279 284 291 297 301 303 301 299 298 298 298 299 299 297 297 297 297 295 295 297 297 295 295 296 297 298 298 295 295 297 295 294
244 243 246 251 257 261 263 265 262 263 267 275 285 290 291 297 301 299 299 296 295 296 297 298 298 298 297 294 294 293 291 294 295 295 295 296 298 298 298 294 293 293 292 292
242 244 250 255 260 262 264 266 265 264 269 276 283 288 292 294 298 301 300 297 296 296 294 296 297 297 296 295 293 291 290 292 294 295 292 294 295 297 296 294 295 293 290 287
249 246 247 253 258 263 264 265 267 268 271 277 283 286 290 292 297 301 300 297 294 293 293 293 294 294 295 295 294 294 292 292 292 292 290 290 292 293 293 293 292 292 290 287
252 252 252 253 256 261 262 265 267 270 272 276 279 282 290 292 297 297 296 294 292 290 292 293 293 292 292 293 292 290 289 289 290 291 291 290 290 289 288 290 291 290 288 285
252 252 253 254 255 260 262 265 270 275 276 274 275 281 288 290 293 294 294 294 293 290 291 292 293 291 289 288 289 287 286 287 287 288 288 288 287 286 287 289 289 290 288 285
255 255 252 254 255 258 264 267 272 275 276 275 278 282 285 288 289 291 294 293 293 291 290 291 292 292 290 288 287 286 286 285 284 283 284 284 283 283 284 286 286 287 287 284
258 257 256 257 258 260 265 269 271 274 278 279 283 285 290 290 293 295 295 294 292 290 289 288 290 290 289 287 286 284 283 283 283 283 283 282 282 281 281 282 283 283 283 282
260 261 261 262 263 265 266 267 269 271 274 280 284 287 290 291 295 296 295 293 291 287 285 286 287 287 287 287 286 285 284 283 282 281 281 281 280 280 278 280 279 280 281 280
261 262 262 264 264 264 265 267 268 269 273 277 281 285 287 290 291 292 292 291 291 288 287 286 286 286 285 285 285 285 285 285 284 282 281 280 279 278 277 278 277 278 278 278
264 265 265 266 266 267 268 268 267 268 271 274 278 284 284 288 289 288 290 291 291 289 288 288 287 286 284 282 282 282 284 285 284 284 282 280 278 277 275 275 275 275 275 276
263 265 268 269 270 270 270 269 269 270 272 274 277 280 282 286 288 288 289 290 292 289 288 289 289 287 285 283 281 281 282 284 284 284 283 281 279 277 275 273 273 274 275 275
263 265 268 269 269 270 270 269 271 273 275 276 278 281 282 284 286 288 288 289 291 291 291 290 290 288 286 284 283 282 283 284 285 284 283 280 278 275 274 273 272 274 274 274
265 264 265 269 271 273 272 272 273 275 276 277 278 281 282 282 284 287 289 288 289 290 290 290 290 289 288 286 285 283 283 284 285 285 283 280 277 275 273 272 272 273 274 274
265 265 266 268 271 273 273 274 273 273 275 278 278 279 280 281 284 286 288 289 289 290 289 288 289 289 288 287 286 284 283 284 285 285 283 281 277 275 273 272 271 272 272 273
268 270 270 269 268 270 273 273 274 274 275 278 278 278 279 280 282 283 285 288 288 289 289 288 288 289 287 286 287 286 284 283 284 284 283 280 277 276 274 272 271 272 272 271
268 270 271 272 272 272 273 274 275 276 277 278 278 278 279 280 281 282 284 286 289 289 289 289 289 289 289 286 286 286 285 284 284 283 281 280 278 277 276 273 272 272 272 271
266 268 270 273 274 274 274 274 275 276 276 277 278 278 279 280 281 284 285 287 288 290 290 289 288 288 288 286 286 286 285 284 284 283 282 280 278 277 276 273 272 272 271 271
264 266 268 271 273 275 276 275 274 274 277 278 278 278 280 282 283 283 284 286 288 290 289 288 288 287 285 285 286 286 285 284 284 284 282 280 280 279 277 275 273 272 272 271
265 266 267 269 271 273 274 274 274 275 276 277 278 279 281 283 283 284 285 287 288 289 290 289 288 286 285 285 285 285 285 284 283 283 282 280 281 282 280 276 274 273 272 271
266 268 269 269 271 273 273 275 276 276 277 278 278 280 282 283 284 285 286 288 289 289 289 288 287 286 285 283 283 283 283 282 282 283 283 281 280 280 280 277 276 274 273 273
266 268 269 270 271 272 273 275 276 278 278 279 280 281 282 283 284 285 287 288 289 289 288 287 287 287 285 284 283 282 283 283 284 284 284 283 281 280 279 277 276 276 274 274
266 267 268 269 271 271 272 275 277 277 279 279 280 281 282 283 284 285 286 287 288 288 288 286 286 286 284 284 284 283 283 284 285 284 284 283 282 281 280 279 278 277 276 276
267 268 269 269 270 271 271 272 274 276 277 279 280 281 282 284 285 286 286 286 287 288 287 286 285 284 283 283 284 284 284 284 285 284 283 282 281 280 280 279 278 277 276 277
Height
5873 5875 5874 5874 5875 5875 5875 5875 5875 5875 5875 5875 5874 5874 5873 5873 5872 5872 5871 5870 5869 5869 5868 5867 5866 5866 5865 5864 5863 5862 5861 5860 5859 5858 5857 5855 5854 5853 5852 5851 5850 5848 5847 5846
5872 5872 5873 5872 5873 5873 5873 5873 5873 5873 5873 5872 5872 5872 5871 5871 5870 5870 5869 5868 5867 5866 5865 5865 5864 5863 5862 5861 5860 5859 5858 5857 5856 5855 5854 5853 5851 5850 5849 5847 5846 5845 5844 5843
5870 5871 5870 5870 5871 5871 5871 5871 5871 5871 5870 5870 5870 5870 5869 5869 5868 5868 5867 5866 5865 5864 5863 5862 5861 5860 5859 5858 5857 5856 5855 5854 5853 5852 5850 5849 5848 5846 5845 5844 5843 5842 5841 5840
5867 5867 5867 5868 5868 5868 5868 5868 5868 5868 5868 5868 5868 5868 5867 5867 5866 5865 5864 5863 5862 5861 5860 5859 5858 5857 5856 5855 5854 5853 5852 5851 5849 5848 5847 5846 5844 5843 5842 5841 5840 5839 5838 5837
5865 5865 5865 5865 5866 5866 5866 5866 5866 5865 5865 5865 5865 5865 5866 5864 5863 5863 5862 5861 5859 5858 5857 5856 5855 5854 5853 5852 5851 5850 5848 5847 5846 5845 5844 5843 5841 5840 5839 5838 5837 5836 5835 5834
5862 5862 5862 5863 5863 5863 5863 5863 5863 5862 5862 5863 5862 5861 5862 5861 5860 5860 5859 5857 5856 5855 5854 5853 5851 5850 5849 5848 5847 5846 5845 5843 5842 5841 5840 5839 5838 5837 5836 5835 5834 5832 5831 5830
5859 5859 5860 5860 5860 5861 5861 5861 5861 5860 5859 5859 5858 5857 5858 5857 5857 5856 5855 5853 5852 5851 5850 5849 5848 5846 5845 5844 5843 5842 5840 5839 5838 5837 5836 5835 5834 5833 5832 5831 5830 5829 5828 5827
5855 5857 5857 5857 5857 5857 5857 5858 5858 5857 5856 5855 5854 5853 5854 5853 5852 5851 5850 5849 5848 5847 5846 5845 5843 5842 5841 5840 5839 5837 5836 5834 5834 5833 5832 5831 5830 5829 5828 5827 5826 5825 5824 5823
5852 5853 5854 5853 5853 5854 5853 5853 5854 5853 5851 5850 5850 5850 5849 5849 5848 5847 5846 5845 5843 5842 5841 5840 5839 5838 5837 5835 5834 5832 5831 5829 5829 5828 5827 5826 5826 5825 5824 5823 5822 5821 5820 5819
5848 5849 5850 5850 5850 5850 5850 5849 5849 5848 5847 5845 5845 5845 5845 5844 5843 5842 5840 5839 5838 5838 5836 5835 5834 5832 5831 5830 5828 5827 5826 5825 5824 5823 5823 5822 5821 5820 5819 5818 5817 5817 5816 5815
5845 5845 5846 5846 5846 5845 5845 5845 5844 5843 5842 5841 5840 5842 5840 5839 5837 5836 5835 5834 5833 5832 5831 5829 5828 5827 5826 5824 5823 5822 5820 5820 5819 5818 5817 5817 5816 5815 5814 5813 5812 5812 5811 5811
5840 5841 5841 5841 5841 5840 5840 5840 5839 5839 5838 5836 5835 5838 5835 5833 5832 5831 5830 5828 5827 5826 5825 5823 5822 5821 5820 5819 5817 5816 5815 5814 5813 5812 5812 5811 5810 5809 5808 5808 5807 5807 5806 5806
5836 5836 5836 5836 5838 5836 5835 5834 5834 5833 5833 5831 5830 5833 5830 5828 5827 5825 5824 5823 5821 5820 5819 5817 5816 5815 5814 5813 5812 5811 5809 5809 5807 5806 5806 5805 5804 5803 5803 5802 5802 5801 5801 5800
5831 5831 5832 5832 5831 5830 5830 5829 5829 5828 5827 5826 5825 5825 5824 5822 5821 5820 5818 5817 5815 5814 5813 5811 5810 5808 5807 5807 5806 5805 5804 5803 5801 5800 5799 5798 5797 5797 5796 5796 5796 5795 5795 5794
5826 5826 5825 5825 5825 5824 5824 5824 5823 5822 5821 5821 5820 5819 5818 5817 5815 5813 5812 5811 5809 5808 5807 5805 5803 5802 5801 5800 5799 5798 5798 5796 5795 5794 5793 5792 5791 5790 5790 5789 5789 5789 5788 5788
5820 5820 5820 5820 5819 5818 5818 5818 5817 5816 5815 5814 5814 5814 5812 5811 5809 5807 5806 5804 5803 5802 5800 5799 5797 5796 5794 5793 5792 5791 5791 5790 5789 5787 5786 5785 5784 5783 5783 5782 5782 5782 5782 5781
5814 5815 5815 5814 5813 5812 5812 5812 5811 5810 5809 5808 5807 5808 5806 5804 5803 5801 5799 5798 5797 5795 5794 5792 5791 5789 5788 5787 5786 5785 5783 5782 5781 5780 5779 5778 5777 5775 5775 5775 5774 5774 5774 5774
5808 5808 5808 5808 5808 5807 5809 5806 5805 5803 5803 5802 5801 5800 5799 5798 5797 5795 5793 5792 5790 5788 5787 5785 5784 5782 5781 5780 5778 5777 5776 5775 5773 5772 5771 5769 5769 5767 5766 5766 5766 5766 5766 5766
5802 5802 5801 5801 5800 5800 5801 5800 5798 5797 5796 5795 5794 5793 5792 5791 5790 5788 5787 5785 5784 5782 5780 5778 5776 5775 5774 5772 5771 5770 5768 5767 5765 5764 5762 5761 5760 5759 5759 5758 5758 5758 5757 5757
5795 5795 5795 5794 5793 5794 5796 5794 5791 5791 5789 5789 5787 5786 5785 5784 5783 5783 5781 5779 5777 5775 5773 5771 5769 5767 5766 5765 5763 5762 5760 5759 5757 5755 5754 5753 5752 5751 5750 5750 5749 5748 5748 5748
5789 5788 5788 5787 5786 5787 5787 5786 5785 5785 5785 5783 5781 5779 5778 5777 5777 5776 5773 5771 5770 5768 5766 5763 5761 5760 5758 5757 5755 5753 5752 5750 5749 5747 5746 5745 5743 5742 5741 5741 5740 5739 5739 5739
5781 5781 5781 5780 5779 5781 5779 5778 5778 5778 5776 5775 5774 5773 5771 5770 5769 5767 5766 5764 5762 5760 5758 5755 5753 5751 5749 5748 5746 5745 5744 5742 5741 5739 5737 5736 5735 5733 5732 5731 5731 5730 5729 5729
5773 5773 5773 5773 5774 5772 5771 5771 5770 5770 5769 5768 5766 5765 5764 5763 5761 5759 5758 5756 5753 5751 5749 5747 5745 5742 5741 5739 5737 5736 5734 5733 5732 5730 5728 5727 5726 5724 5723 5722 5721 5720 5719 5719
5765 5765 5764 5764 5764 5764 5763 5763 5762 5761 5761 5760 5759 5757 5756 5754 5753 5751 5749 5747 5745 5742 5740 5738 5735 5733 5731 5729 5728 5726 5725 5723 5722 5721 5719 5717 5716 5715 5713 5712 5711 5710 5709 5708
5757 5756 5756 5756 5756 5755 5755 5754 5754 5753 5752 5751 5750 5749 5747 5745 5744 5742 5740 5738 5735 5733 5730 5728 5726 5724 5722 5720 5718 5717 5715 5713 5712 5710 5709 5708 5706 5705 5703 5702 5701 5700 5699 5698
5749 5749 5748 5748 5748 5747 5747 5746 5745 5744 5743 5742 5740 5739 5737 5735 5734 5732 5729 5727 5725 5723 5720 5718 5716 5714 5712 5710 5708 5707 5705 5703 5702 5700 5699 5697 5696 5695 5693 5692 5691 5690 5689 5688